Theta_e
319 319 318 317 317 316 315 315 315 315 314 315 315 315 313 311 308 304 303 304 300 302 302 301 301 301 302 302 301 300 299 299 297 296 296 296 296 298 302 304 306 307 308 309 311 311 310 310 309 309 308 308 307 306 305 304 304 305 305 304 303 302 301 301 301 302 302 301 301 301 300 300 300 300
318 317 317 317 317 316 316 316 314 314 314 313 314 314 314 313 311 309 306 306 305 304 302 304 304 300 300 301 300 300 299 297 296 295 295 295 295 297 300 303 306 306 307 309 310 311 311 310 309 309 308 308 307 307 306 304 304 305 305 305 304 303 303 303 302 302 301 301 301 300 300 300 300 300
319 318 317 317 317 317 317 316 316 314 313 313 312 313 313 312 313 312 310 307 305 310 306 305 307 303 300 300 299 298 297 296 295 295 295 295 294 294 297 299 303 305 306 307 307 308 310 310 310 309 308 307 307 306 305 305 304 304 304 304 304 303 303 302 301 301 301 300 300 300 300 299 300 299
320 319 318 317 318 318 317 317 317 317 316 315 314 314 314 314 315 313 313 310 309 307 309 307 305 303 300 299 297 295 294 295 294 295 295 295 293 293 294 297 299 301 303 303 304 305 306 307 308 309 308 307 307 306 305 304 304 304 304 304 303 302 302 301 301 301 300 300 299 299 299 299 298 298
319 318 317 317 318 318 317 317 316 317 317 316 315 314 314 314 313 314 313 311 310 302 296 299 300 298 298 294 295 294 293 293 293 293 294 293 292 292 292 293 295 298 299 301 302 303 303 305 306 307 306 305 305 305 304 303 303 303 303 302 302 302 301 301 301 300 299 299 299 299 298 298 298 298
318 317 316 316 316 316 316 316 315 315 315 314 314 313 313 314 313 313 313 311 309 308 295 295 296 295 296 295 294 295 293 292 291 291 292 292 292 292 292 292 293 296 298 299 301 302 302 302 302 303 303 304 303 303 303 302 302 301 301 301 300 300 300 300 300 299 298 298 298 298 297 297 297 297
316 316 315 315 315 316 315 314 315 314 314 314 314 314 313 313 313 312 313 312 308 308 303 300 298 293 293 295 293 293 293 292 292 290 290 291 291 291 291 290 291 294 297 298 299 300 301 301 301 301 300 300 300 300 301 300 299 299 299 299 298 298 298 298 297 298 297 297 297 296 296 296 296 296
315 315 314 314 314 314 314 314 313 314 314 313 313 313 313 313 313 313 312 312 312 309 307 294 298 294 291 290 291 293 291 290 290 290 289 290 290 290 290 290 290 292 295 296 297 298 299 299 300 300 299 298 299 299 298 297 297 296 297 297 297 296 296 296 296 296 295 295 296 296 295 295 295 295
315 314 314 314 313 313 312 312 312 313 312 312 312 312 312 311 312 311 310 310 310 308 305 296 291 289 290 288 288 289 289 287 288 288 288 288 288 288 289 289 290 291 293 295 295 296 297 297 298 298 298 298 298 298 297 296 296 296 296 296 295 295 295 295 295 294 294 294 294 294 294 294 294 294
315 314 314 314 313 312 312 311 311 311 311 312 312 311 311 311 309 307 305 306 305 305 305 299 289 288 289 287 286 288 289 288 286 286 286 286 287 286 286 287 288 288 288 288 290 293 295 296 296 296 296 297 297 296 296 296 295 295 295 295 295 295 294 294 294 294 293 293 293 292 292 292 292 293
315 315 315 314 314 313 313 312 312 311 310 310 310 310 310 309 307 303 303 300 299 300 300 296 293 290 288 288 287 286 287 287 287 287 285 285 286 286 286 286 286 287 287 288 290 289 290 291 291 293 294 295 295 295 295 295 295 295 294 294 294 294 294 294 293 293 293 292 292 291 291 291 291 292
315 315 315 315 314 314 314 313 313 312 311 311 310 310 309 308 304 303 302 299 299 298 297 297 293 289 287 286 285 285 285 285 285 286 286 287 286 285 285 286 285 285 286 285 285 288 289 290 290 291 292 292 293 293 293 293 293 292 293 294 293 293 293 293 293 292 292 291 291 290 290 290 290 291
315 315 315 315 315 312 304 303 304 306 306 311 308 307 306 303 300 300 299 298 297 296 295 293 290 289 287 287 285 284 284 285 288 286 286 286 287 286 285 285 286 286 285 284 283 283 284 284 283 284 284 285 289 289 291 290 291 292 293 293 293 293 293 292 292 292 291 291 290 290 290 290 290 290
314 315 315 313 302 300 299 299 300 301 301 302 308 310 305 301 299 298 297 296 295 295 294 294 291 290 289 288 287 287 287 287 287 286 285 285 286 286 285 285 285 286 285 283 282 282 282 283 282 281 281 283 283 283 284 284 286 288 290 291 291 292 292 292 291 291 290 290 290 289 289 289 289 289
311 312 312 314 305 299 297 298 298 300 300 300 300 301 301 301 303 298 295 294 294 294 294 294 292 292 291 290 288 288 288 286 287 287 286 286 286 286 286 286 286 285 285 282 281 281 280 282 281 280 281 281 281 282 282 286 288 289 290 290 290 290 290 290 290 290 290 289 289 288 289 289 289 289
312 309 307 306 308 305 304 304 302 299 298 299 299 299 299 298 298 300 299 296 294 293 294 292 293 294 294 293 289 288 288 287 286 287 286 286 286 286 286 286 286 285 284 282 280 281 278 281 281 280 280 280 280 282 285 288 289 289 290 290 289 289 289 289 289 289 288 288 288 288 288 289 289 289
312 307 304 303 303 305 295 297 301 301 300 295 295 296 296 295 296 298 298 298 299 297 295 293 293 294 294 293 291 290 289 289 287 286 286 286 286 287 286 286 284 281 282 282 280 277 277 280 280 279 279 279 279 281 287 288 288 288 288 288 288 288 288 288 288 288 288 288 288 288 288 288 288 288
309 305 302 302 301 298 296 297 298 299 299 298 296 295 296 296 294 294 296 295 294 294 297 296 295 295 295 295 294 291 290 288 287 286 286 286 286 286 286 286 283 280 283 284 280 276 276 277 277 279 278 277 278 277 284 286 286 286 286 287 287 287 288 288 288 287 287 287 288 288 288 288 288 287
307 305 305 303 302 300 298 297 297 298 298 296 295 295 294 295 295 295 295 295 295 295 297 297 297 296 295 295 292 290 290 290 290 289 288 287 287 286 282 279 279 279 280 280 280 275 277 276 276 276 276 276 276 276 284 285 286 286 286 286 286 286 287 287 287 287 287 287 287 287 287 288 287 287
302 301 301 301 300 300 299 295 294 296 296 295 292 291 292 292 292 293 293 294 295 295 295 295 295 294 293 293 290 290 290 290 288 287 286 287 286 284 283 282 277 278 278 278 278 274 276 275 276 276 275 275 275 275 277 285 284 284 284 285 286 286 286 286 286 287 287 287 287 287 287 286 286 285
300 300 301 300 300 299 298 295 295 296 295 294 291 291 291 290 290 291 289 291 292 292 292 292 291 291 292 292 293 292 292 289 288 287 286 285 285 284 281 279 278 279 277 276 278 275 274 276 274 274 274 274 275 272 270 271 283 284 284 284 285 285 284 284 284 284 285 285 285 285 285 285 285 284
298 297 293 294 300 299 299 296 295 295 294 293 291 291 290 289 289 288 287 288 288 290 289 289 290 291 291 292 293 292 292 291 289 287 286 285 284 283 282 281 278 276 275 276 277 276 273 274 273 273 272 274 271 270 271 271 275 283 284 284 284 283 283 283 283 283 283 283 283 284 284 284 283 281
296 295 292 291 294 297 297 296 296 295 293 294 292 291 290 290 289 289 287 287 286 286 285 285 286 286 287 288 288 289 291 289 288 288 287 285 284 283 281 279 277 276 276 277 278 277 274 275 274 273 270 270 271 268 269 271 270 272 272 275 278 282 281 281 281 281 281 282 282 282 283 282 282 279
293 293 293 292 293 296 296 296 296 295 294 295 294 293 291 291 290 289 287 287 287 286 287 285 285 285 285 285 286 287 287 287 286 285 285 285 284 282 281 280 279 275 275 276 278 275 273 272 273 272 270 267 269 272 268 270 270 271 272 273 271 278 279 279 279 280 280 280 281 281 281 281 281 278
296 294 293 293 292 294 295 295 295 294 294 294 293 292 293 293 293 289 288 287 286 286 286 285 285 284 284 285 285 285 285 284 283 282 281 280 281 282 281 280 278 274 273 275 281 274 273 270 272 270 270 266 266 268 270 270 272 273 273 272 272 272 272 272 274 270 278 279 279 280 280 280 280 279
296 296 294 293 291 292 293 294 294 294 294 294 291 292 294 294 292 288 288 287 286 286 285 285 284 284 284 284 284 284 284 283 281 280 279 279 278 278 279 280 279 275 273 277 283 272 273 271 270 270 268 268 269 268 266 269 270 271 271 271 271 272 269 269 269 271 272 273 273 276 277 279 279 279
294 293 293 292 290 291 292 293 294 294 294 293 292 293 293 292 290 288 287 286 286 286 285 285 284 284 284 283 283 283 282 281 281 279 278 278 278 278 277 277 278 278 277 278 276 273 271 270 272 272 268 266 266 268 268 265 266 269 271 270 272 269 268 270 272 273 274 273 273 277 277 277 278 278
295 294 292 292 291 291 291 292 293 293 293 291 293 293 293 290 288 287 286 286 286 285 285 284 284 283 284 284 283 282 282 281 279 278 277 277 277 277 276 277 277 277 277 276 275 274 275 273 270 269 271 269 268 266 266 270 269 269 270 272 270 268 272 272 272 273 273 274 273 273 272 272 273 273
294 293 292 292 291 290 291 292 292 292 291 292 292 291 290 287 288 287 287 286 286 285 284 284 284 283 284 284 283 282 280 279 278 277 276 276 276 276 277 276 276 276 276 276 275 275 273 273 272 273 271 270 272 272 272 271 271 272 273 271 266 269 271 273 273 272 273 274 273 271 270 271 272 273
291 291 292 291 290 289 289 289 289 288 288 289 288 288 287 287 287 287 287 286 285 285 285 284 284 283 282 281 280 280 279 278 277 276 276 276 275 275 275 274 274 274 275 275 276 275 275 274 274 273 273 274 274 273 273 271 271 270 272 270 269 269 269 269 270 272 273 271 270 270 271 271 271 272
289 289 289 289 288 288 288 288 288 288 287 287 287 287 286 287 287 287 287 286 286 286 285 284 283 281 280 280 279 279 278 277 276 277 276 275 275 275 274 273 272 272 271 271 274 274 274 275 274 273 272 272 272 272 271 271 268 267 269 271 270 267 269 271 272 272 272 272 271 271 270 269 270 272
287 287 286 287 287 287 287 286 286 286 286 286 286 286 286 286 286 286 286 286 286 286 285 283 280 279 279 279 279 279 278 277 276 277 276 276 275 275 274 272 270 270 270 270 270 271 273 271 272 272 271 270 268 269 270 270 269 268 267 269 270 270 271 270 270 271 272 271 269 269 268 268 269 271
286 286 286 286 286 286 286 285 285 285 285 284 285 284 285 285 285 285 285 285 284 283 281 280 279 279 279 279 278 277 276 276 276 277 276 276 275 275 274 272 271 270 269 269 269 268 268 270 271 270 270 272 272 270 266 262 264 264 264 264 267 268 268 268 268 268 270 270 269 269 267 267 268 270
287 286 286 286 286 286 286 285 284 284 284 284 283 283 284 284 284 284 284 284 283 282 281 280 279 279 279 278 277 276 276 276 276 276 276 275 276 274 273 272 271 271 270 270 269 269 268 267 268 269 269 267 265 267 267 263 263 263 264 265 265 263 266 267 269 269 270 270 269 268 268 267 266 268
288 287 286 285 286 286 286 286 285 284 284 283 283 282 282 283 283 283 283 283 282 281 280 280 279 279 278 277 277 276 276 275 275 275 275 275 274 274 273 272 271 271 271 270 270 270 270 269 269 268 267 267 265 265 270 263 260 262 261 263 267 267 266 269 269 269 268 269 270 268 267 266 266 267
287 287 286 286 285 286 285 286 285 285 284 284 283 282 282 282 282 282 282 282 281 281 280 279 279 278 278 277 276 276 275 275 275 274 274 274 274 273 273 272 272 271 271 271 270 270 270 268 268 268 267 264 262 261 263 273 271 264 266 267 268 267 267 266 267 267 267 267 269 269 267 265 265 266
287 287 287 287 286 286 286 286 286 285 285 284 283 283 282 282 282 282 282 282 281 280 280 279 278 278 278 277 276 276 275 275 273 274 273 273 274 273 272 272 272 272 271 271 271 271 270 268 269 268 267 265 262 261 263 269 273 275 270 269 267 264 264 264 266 266 267 267 268 269 267 266 264 266
287 287 286 287 286 286 286 286 286 285 285 284 283 283 283 283 283 282 282 281 281 280 280 279 278 278 278 277 275 275 274 274 274 273 273 273 273 272 272 272 271 271 271 271 271 270 270 270 269 268 266 265 264 262 261 264 262 266 274 268 265 264 266 266 266 264 264 265 267 268 268 265 265 265
287 288 287 287 287 286 286 286 286 285 285 284 283 283 283 282 282 281 281 281 280 280 280 279 278 277 277 276 275 275 274 273 273 273 273 273 273 272 272 272 271 271 270 269 269 269 270 269 269 268 267 266 265 264 264 261 263 261 268 274 270 266 265 263 262 263 264 266 267 266 265 265 269 274
287 288 288 288 288 287 287 286 286 285 285 284 284 284 283 282 281 280 280 280 279 279 278 278 277 277 276 276 275 275 274 274 273 273 273 273 273 273 272 272 271 271 270 269 269 270 270 269 269 269 268 268 268 268 265 262 259 263 266 270 274 271 267 266 266 265 263 264 266 267 267 265 261 262
287 287 287 287 287 287 286 286 286 285 285 284 284 283 283 282 281 280 280 279 278 278 277 277 277 276 275 275 275 274 273 273 274 274 273 273 273 273 273 272 271 270 269 269 269 269 269 269 270 271 268 266 265 265 264 261 261 260 261 265 272 273 273 272 267 265 263 265 268 267 262 260 261 260
286 286 287 287 286 286 286 285 285 284 284 283 283 282 281 280 280 279 278 278 278 277 277 276 276 275 275 275 275 274 274 273 273 273 273 273 272 272 272 271 270 270 270 269 269 268 269 270 270 269 267 266 264 262 260 261 260 261 261 262 261 269 271 271 273 273 271 269 267 266 262 260 263 264
286 286 286 286 285 285 285 284 284 283 282 282 281 279 278 278 278 277 277 277 276 276 276 276 276 275 275 275 274 274 274 273 273 273 273 272 272 271 271 270 270 270 270 269 269 268 268 268 267 266 265 264 264 263 261 262 262 262 262 260 261 260 262 269 272 273 274 274 273 270 267 266 264 263
286 285 285 284 283 283 283 283 282 282 281 280 279 278 278 277 277 277 276 276 276 275 275 275 275 274 274 274 274 274 273 273 273 272 272 272 272 271 270 270 270 270 269 269 268 268 268 267 266 265 264 262 264 262 261 261 260 261 260 261 259 256 260 264 268 273 273 274 273 273 274 273 273 273
285 285 284 282 281 281 281 281 280 280 279 278 278 277 277 277 276 276 276 276 275 275 275 274 274 274 273 273 273 272 272 273 272 272 272 271 271 271 270 270 269 269 268 268 267 266 267 266 265 264 262 262 262 262 262 263 262 262 261 260 258 258 259 263 266 267 268 267 272 274 274 274 274 273
Wind_Speed
12 12 13 12 10 10 9 7 8 7 7 9 9 10 12 10 10 9 8 9 8 6 7 6 7 10 9 9 8 8 9 11 12 10 11 11 9 14 19 19 17 16 18 18 20 21 21 21 20 19 18 18 17 16 15 15 14 13 13 13 14 14 14 14 14 14 14 15 15 15 15 15 15 16
10 11 11 11 11 9 9 9 7 7 8 8 9 9 9 9 12 10 11 10 8 6 5 7 6 7 10 9 7 8 9 10 13 9 10 10 10 12 16 16 15 17 18 20 21 21 21 21 21 19 18 18 17 17 16 15 15 15 15 15 15 15 15 15 15 15 15 15 15 15 16 16 17 18
9 10 11 10 11 10 10 8 8 8 7 8 7 8 8 8 10 10 8 11 4 7 7 8 8 8 10 8 7 6 6 8 12 9 9 10 9 10 10 16 16 16 18 17 17 18 20 20 21 20 19 19 18 17 17 15 15 15 16 16 15 15 15 15 15 15 15 14 14 15 16 17 18 19
10 12 13 12 11 10 9 9 9 9 9 7 7 7 7 8 8 7 10 12 12 6 7 7 7 7 7 8 8 8 6 7 14 9 8 7 8 7 7 13 18 16 16 16 16 15 16 17 19 20 19 20 18 17 18 17 16 16 16 16 16 16 16 16 16 15 15 14 15 15 17 18 18 18
11 12 13 12 12 11 11 10 9 9 10 8 7 6 6 8 6 7 9 12 12 2 1 1 4 2 4 4 6 7 6 5 5 5 4 4 6 6 7 7 13 17 16 16 15 14 14 13 15 16 18 18 18 18 18 18 17 17 16 16 16 15 15 16 15 15 15 15 15 16 17 17 17 18
12 11 12 12 11 11 12 10 10 9 9 9 8 7 8 9 8 7 8 10 10 10 2 3 1 2 2 5 3 8 8 6 4 6 5 4 5 6 6 6 7 14 17 16 13 13 13 13 12 11 10 12 13 15 16 16 15 14 15 14 14 14 15 16 16 15 15 15 15 15 16 17 18 19
12 12 12 13 10 10 11 11 11 10 11 10 11 12 9 10 10 8 10 9 10 9 7 7 7 7 6 7 5 5 4 4 5 6 7 7 5 4 5 6 4 8 11 11 12 12 11 11 11 11 11 11 12 13 13 14 14 14 15 15 14 14 15 15 16 15 15 15 15 16 16 17 17 18
12 13 12 12 12 11 13 12 11 11 11 10 11 11 11 12 13 11 10 12 11 9 10 5 9 6 7 3 2 4 3 5 5 6 3 4 6 5 5 6 5 5 9 12 12 12 12 12 12 13 12 13 13 14 14 14 14 14 15 14 14 14 14 15 15 15 15 15 15 15 15 16 17 18
12 13 13 13 12 12 13 12 12 11 13 12 11 11 10 10 10 9 9 10 11 11 11 6 2 3 2 1 2 6 6 2 3 2 5 5 5 5 4 3 4 4 8 10 13 13 13 13 13 14 13 13 14 14 15 15 14 14 14 14 14 14 14 14 15 15 17 16 15 14 15 16 17 18
14 15 15 14 13 14 14 13 11 11 14 13 13 14 12 11 9 10 9 9 10 10 9 7 4 3 5 3 2 4 5 6 4 3 3 2 4 4 5 5 3 2 3 3 4 7 10 12 14 15 13 14 15 15 15 14 14 13 13 14 14 14 14 15 15 15 15 16 17 16 16 16 16 17
14 14 14 14 14 15 14 14 13 12 12 11 12 11 12 12 10 10 10 9 9 9 8 6 6 6 2 3 5 2 3 3 4 6 4 5 4 4 6 6 3 3 3 4 6 6 6 7 6 8 12 14 15 15 15 14 14 13 13 14 14 14 15 16 16 15 16 17 16 16 16 16 16 16
13 14 14 13 14 14 14 13 13 13 13 11 13 12 11 11 11 11 10 9 10 9 8 8 7 4 5 3 3 3 4 2 3 6 6 7 6 7 5 5 4 3 5 6 5 6 7 8 10 12 12 14 15 15 13 14 13 12 12 13 14 14 15 16 16 17 16 16 16 16 16 16 16 16
12 13 14 14 14 14 15 17 16 16 15 12 11 10 10 10 9 9 8 8 8 7 7 6 3 5 4 6 6 6 7 11 10 5 7 6 3 3 4 4 5 6 5 5 5 6 7 6 6 5 5 6 7 9 12 9 12 12 13 13 13 15 16 16 16 15 15 15 15 15 15 15 15 15
13 14 12 12 16 18 19 20 20 19 18 18 15 12 10 10 10 10 9 8 8 8 8 8 8 7 8 9 10 9 9 5 3 6 7 8 4 3 2 2 4 6 6 5 6 6 4 6 6 4 6 6 5 6 6 6 6 7 12 13 14 15 15 15 14 14 13 14 14 14 14 14 14 15
12 12 12 11 13 14 14 16 18 18 19 19 19 18 16 15 14 11 10 9 8 8 9 7 8 9 10 10 9 10 8 6 9 7 7 5 4 5 5 5 1 3 8 7 4 5 4 6 6 5 5 5 4 5 6 7 9 11 12 12 12 12 12 11 11 11 11 11 12 12 12 13 14 15
11 11 11 10 9 10 11 10 12 15 19 19 19 19 18 18 20 18 15 12 9 9 8 8 11 10 11 9 9 8 6 8 7 5 5 7 7 6 6 4 4 4 8 6 4 4 1 5 5 4 5 4 4 4 6 8 9 9 8 8 9 9 9 9 9 9 10 10 11 11 12 13 14 15
12 10 10 10 9 8 13 11 9 9 10 13 16 16 16 17 18 17 17 16 15 12 11 11 10 11 10 9 10 11 11 7 8 6 6 7 7 6 6 6 4 3 6 6 3 2 1 6 5 5 3 3 3 3 5 6 5 5 6 7 7 6 7 7 8 8 8 9 10 11 12 13 14 15
11 10 9 9 9 7 7 7 8 9 9 9 8 9 9 9 13 16 17 16 15 13 12 11 12 11 8 10 9 9 9 11 10 10 10 8 7 8 8 4 4 3 7 8 6 1 1 3 3 4 3 2 2 3 3 3 2 3 3 3 3 4 5 5 6 7 8 9 10 11 12 14 14 15
10 10 11 12 12 10 10 10 12 10 10 9 9 9 9 9 9 10 10 9 10 10 9 10 10 8 9 8 7 10 11 13 11 11 11 12 10 4 3 5 3 4 3 4 4 3 1 1 3 2 2 3 3 1 1 1 3 2 2 1 1 2 3 4 5 6 8 9 10 12 13 14 15 15
8 8 9 9 9 9 10 13 17 15 10 10 9 10 9 8 7 7 7 9 8 8 8 8 8 8 9 9 9 10 11 8 6 5 4 5 5 7 6 6 3 3 3 3 4 3 1 1 4 1 1 3 2 3 5 6 5 3 4 4 4 5 6 6 7 8 9 11 12 13 13 14 15 15
9 10 10 10 9 9 9 12 16 17 14 9 11 10 10 8 6 7 4 6 8 8 8 8 8 9 12 13 13 14 15 11 10 8 7 7 8 7 7 5 4 5 3 2 3 4 2 2 3 3 1 2 2 3 2 1 6 7 7 7 8 9 10 11 11 11 11 11 12 13 13 14 14 16
9 9 13 12 11 11 12 14 17 17 15 10 10 10 10 9 8 6 3 4 5 8 9 9 9 10 12 13 14 15 15 16 13 11 11 10 9 9 8 7 5 2 2 3 4 5 4 3 2 2 0 3 2 1 1 3 3 6 7 10 11 12 12 12 12 12 12 12 13 13 15 14 15 8
7 8 10 16 14 12 12 16 18 19 16 12 11 11 11 12 12 11 10 9 8 7 7 5 6 5 7 8 7 9 15 16 12 8 7 9 10 9 7 6 6 2 2 4 4 6 3 5 1 4 2 1 1 0 1 1 1 2 4 6 8 13 13 13 13 13 13 14 14 14 15 15 13 6
6 7 7 10 15 17 15 15 17 18 20 14 11 10 12 13 14 8 10 11 11 11 10 9 6 6 4 5 5 5 7 8 6 5 6 8 8 8 8 7 7 5 4 3 5 6 2 4 3 0 3 4 2 0 1 2 2 3 5 7 6 7 9 9 9 11 13 13 14 15 15 15 14 8
9 8 8 7 10 13 14 14 16 17 19 17 11 13 13 15 13 14 12 11 10 9 9 8 7 6 5 5 5 5 6 5 4 4 4 5 6 8 9 8 7 4 2 3 8 4 3 4 5 2 2 3 2 3 0 3 5 5 5 7 6 6 5 5 4 4 6 11 13 15 14 15 16 12
9 9 7 7 8 12 13 13 14 16 17 19 9 12 13 8 12 13 9 11 11 9 8 8 8 7 7 6 6 6 6 5 5 5 5 5 5 3 4 9 10 7 4 5 9 4 6 3 4 5 3 3 1 2 2 2 2 3 5 5 6 6 4 3 4 4 5 5 6 9 11 16 15 16
8 6 6 6 9 14 15 15 15 16 18 16 12 14 13 11 16 13 8 9 9 8 9 9 9 9 8 8 7 7 7 5 5 5 5 6 6 6 6 6 4 7 8 7 4 5 5 3 2 7 4 4 5 1 2 1 1 2 5 6 5 3 3 4 4 4 5 5 5 11 12 14 15 16
7 8 6 8 12 14 15 16 16 17 16 12 16 14 15 15 15 10 10 10 10 9 9 9 9 9 8 7 7 7 7 7 7 7 6 6 7 8 8 9 11 10 9 7 5 6 7 7 4 4 7 7 7 4 1 1 2 2 2 3 1 3 5 3 4 4 3 3 4 5 6 6 6 7
6 7 11 13 13 14 15 15 15 13 15 16 14 15 15 15 9 10 10 10 9 10 11 10 9 8 9 8 7 7 7 8 8 8 7 7 8 9 10 10 9 8 7 5 6 5 7 8 8 7 6 5 6 5 5 3 2 1 2 2 2 3 3 4 3 3 3 4 6 6 6 6 7 6
8 9 10 11 11 10 9 6 4 5 6 9 9 11 12 8 7 8 9 10 12 12 10 10 10 9 8 8 9 10 9 9 8 8 8 9 7 8 9 10 8 6 6 6 6 6 7 7 7 7 7 6 5 5 4 3 2 2 1 2 1 2 2 3 4 3 4 4 4 4 6 6 6 6
3 1 4 5 7 7 8 5 2 2 5 6 7 7 7 6 7 8 9 11 11 10 10 9 7 7 8 8 9 8 9 8 7 7 9 9 8 7 7 10 8 7 5 5 6 6 6 6 6 6 7 7 6 5 4 5 4 2 0 0 2 2 2 2 3 3 3 4 4 4 4 6 7 7
4 3 5 7 6 6 7 6 6 5 5 5 5 5 6 5 4 5 5 4 3 4 5 7 8 7 8 8 7 8 7 7 7 7 8 9 8 8 9 8 6 6 6 6 6 6 6 5 6 6 6 6 6 5 4 4 4 2 1 1 3 0 1 4 4 4 4 4 2 3 3 4 6 6
2 3 4 5 6 7 9 8 8 8 7 6 6 6 6 4 5 5 6 8 7 7 9 10 10 7 7 7 7 7 7 7 8 7 7 7 9 7 5 8 9 9 9 7 5 6 5 5 5 7 6 5 5 6 6 5 1 4 4 1 1 2 4 5 4 3 3 3 2 2 3 3 4 5
6 6 7 7 8 8 8 9 10 10 9 9 8 7 7 6 6 6 6 6 6 7 9 10 12 11 9 7 9 9 8 7 7 6 7 7 7 8 7 9 7 7 8 8 7 6 5 4 6 6 7 5 4 5 6 5 3 0 1 4 5 3 2 3 3 3 3 3 2 2 3 3 3 4
9 9 10 8 7 7 7 8 9 9 9 10 9 9 8 8 9 8 7 6 6 7 7 8 8 10 10 10 10 10 9 9 8 7 5 6 6 7 8 9 9 8 8 8 8 6 6 6 6 6 4 4 4 4 1 2 3 1 3 2 4 3 1 2 4 4 3 3 1 2 3 3 4 4
10 8 8 8 9 9 9 9 8 9 10 10 10 9 9 9 9 9 9 9 9 8 8 9 9 10 9 9 9 9 9 9 9 8 8 7 7 7 6 7 8 8 8 8 8 7 7 7 7 7 7 5 3 3 1 5 5 3 2 0 2 2 1 3 3 2 2 2 4 2 2 5 6 6
8 8 9 9 8 9 10 9 9 9 9 10 10 11 12 13 12 11 10 11 10 10 10 10 8 9 10 10 9 9 9 10 10 9 8 7 7 8 9 8 8 8 8 7 7 7 7 7 6 7 8 7 6 6 3 1 5 5 4 3 0 1 2 1 1 2 3 3 4 3 3 4 5 6
11 9 9 10 9 9 8 8 8 8 9 9 10 10 9 9 9 9 11 9 10 10 9 8 8 9 9 10 11 10 9 7 8 8 8 8 9 8 9 10 9 8 8 7 7 6 6 7 7 7 7 8 8 7 5 1 1 1 5 6 3 0 1 3 2 2 3 4 1 2 4 4 5 5
10 10 10 10 10 9 10 10 10 11 11 10 10 10 10 9 8 7 8 8 8 8 8 8 9 10 11 10 9 11 11 10 9 9 9 8 8 10 9 9 9 8 8 8 6 6 6 6 7 7 7 7 8 6 7 5 1 1 4 4 6 4 1 4 1 1 3 2 3 3 3 2 4 7
10 9 9 8 8 8 9 8 9 10 10 11 11 11 11 11 11 11 11 8 8 10 10 10 11 11 10 9 10 9 9 10 10 9 9 9 8 8 9 9 9 10 9 8 8 6 6 6 6 6 6 6 6 7 7 6 2 1 1 5 10 7 4 3 0 0 2 2 2 2 3 5 4 5
10 10 9 7 7 7 8 8 8 7 8 7 8 7 8 8 10 11 11 10 11 11 11 11 12 12 11 11 11 12 11 9 8 8 8 8 9 9 9 9 8 8 9 9 8 8 6 5 7 12 9 7 7 7 6 5 2 1 3 3 6 7 6 3 2 2 2 3 0 2 2 1 2 2
9 10 9 7 8 7 7 8 8 8 8 8 8 7 7 7 7 8 9 10 10 10 10 10 10 11 10 10 11 10 11 11 10 9 9 9 9 8 9 8 9 8 8 9 8 7 6 6 7 7 7 7 6 5 4 6 4 1 1 1 3 6 6 6 5 3 4 4 2 1 2 3 1 2
9 9 9 7 6 6 6 7 7 8 8 8 8 8 8 9 8 10 9 10 10 10 10 10 9 9 9 9 10 10 10 10 10 10 9 9 9 10 9 7 7 7 7 7 7 8 7 6 6 7 6 6 3 4 5 4 5 4 1 1 1 4 5 5 5 4 2 6 4 4 4 3 2 2
8 8 8 6 6 6 6 7 7 7 8 8 8 9 9 10 10 9 9 9 10 10 9 10 10 10 10 10 10 9 8 9 9 10 10 8 8 7 8 7 7 7 8 9 9 7 6 6 6 6 6 5 4 6 6 5 4 5 3 1 1 3 4 5 5 3 4 4 5 3 2 1 2 3
7 7 7 5 6 5 5 5 6 7 8 8 9 9 9 9 9 8 8 8 9 10 11 10 10 10 10 10 11 10 9 7 8 8 8 7 7 7 7 8 8 8 8 8 9 8 6 6 5 5 5 5 4 4 6 6 4 4 1 1 0 2 2 2 3 3 2 3 4 5 1 4 2 2
Wind_Direction
217 221 219 221 225 226 226 222 216 212 207 207 204 200 206 205 227 233 240 227 221 240 203 197 225 206 210 211 207 198 203 208 194 195 207 212 214 218 218 217 216 217 219 217 216 215 215 216 219 224 226 228 231 236 241 245 248 252 257 261 263 263 263 263 262 263 267 271 274 279 283 285 286 290
216 218 218 217 224 221 221 225 219 219 218 210 208 204 209 194 215 227 239 252 185 211 211 210 214 203 214 210 205 201 209 202 191 200 205 212 216 215 217 218 216 216 218 220 219 218 219 220 221 224 228 231 233 236 240 241 242 245 247 251 253 254 257 260 262 265 269 273 277 280 283 285 288 291
216 218 218 214 221 216 221 218 220 224 219 222 212 214 204 206 218 225 228 259 218 188 198 221 216 198 205 197 196 201 201 194 190 197 209 216 220 209 212 217 220 217 217 219 221 222 222 222 223 224 228 232 235 239 243 243 247 247 248 252 256 259 261 262 264 266 269 273 277 281 282 285 288 291
222 225 225 221 222 219 222 221 220 224 226 218 214 215 211 216 214 207 230 241 252 197 204 211 214 198 186 177 183 199 198 195 191 201 204 207 203 204 209 214 219 221 219 222 225 225 226 226 227 228 230 236 236 239 244 247 248 247 247 249 252 256 259 261 263 267 269 271 274 276 279 284 289 289
224 225 226 225 225 222 225 223 221 225 227 222 225 218 214 220 205 208 226 240 253 241 348 220 209 218 150 187 193 186 195 190 203 203 198 186 200 208 211 209 216 219 222 225 226 227 227 228 230 231 234 237 239 243 246 247 248 250 252 255 258 260 262 263 265 267 270 271 272 276 282 284 284 285
225 223 224 223 220 218 225 219 219 220 224 223 225 222 222 225 222 209 221 239 245 240 189 259 296 178 212 204 190 196 187 199 170 199 202 200 205 212 208 209 212 216 221 223 223 225 226 228 229 231 234 236 240 244 245 246 249 251 254 256 257 259 262 265 269 271 273 274 275 277 279 281 284 287
219 221 221 222 216 216 222 220 220 213 220 218 220 223 216 227 227 215 216 228 236 240 229 201 201 199 197 206 194 196 189 180 180 193 205 200 196 206 203 212 214 209 216 222 227 226 223 224 223 222 224 227 232 236 240 246 250 253 255 255 257 257 259 264 267 268 269 270 271 273 276 280 282 285
214 218 220 221 215 212 218 219 217 216 214 214 222 224 218 218 221 220 215 218 236 234 240 212 208 200 175 215 116 155 137 161 183 203 196 190 205 204 207 216 223 209 209 219 226 227 228 227 226 225 225 226 228 231 237 243 248 250 252 255 256 257 262 265 269 271 271 272 273 276 279 281 284 287
214 215 217 217 211 211 219 217 216 212 212 212 215 220 221 223 223 221 213 220 222 226 224 213 202 143 147 124 141 158 151 145 168 175 199 205 211 215 216 219 217 214 224 222 223 224 224 225 227 228 227 229 229 231 235 239 242 246 249 252 255 256 260 262 264 268 273 274 273 274 277 281 285 289
213 215 216 215 208 209 213 218 217 215 218 216 216 217 217 219 218 217 217 215 218 224 226 197 173 185 175 152 171 195 174 162 176 204 225 231 222 209 233 229 206 190 202 222 230 225 227 227 228 229 230 231 234 235 237 240 241 244 247 250 253 256 259 260 263 267 269 275 279 280 281 284 286 287
216 218 219 217 213 214 214 216 214 214 216 212 218 217 218 217 212 213 214 209 211 215 222 219 189 175 194 164 186 190 166 175 189 193 191 239 216 216 216 232 192 180 213 222 210 213 215 223 230 234 234 236 238 240 241 243 244 245 247 251 254 257 261 264 265 267 274 278 280 282 284 285 287 289
218 219 221 222 219 218 216 215 217 212 217 215 220 216 217 215 210 213 212 209 209 213 216 206 187 174 160 145 89 101 126 144 264 214 195 215 210 214 207 213 183 192 189 220 224 221 211 218 225 230 235 239 242 245 248 251 251 249 250 255 259 263 265 266 269 273 276 279 281 283 284 285 288 291
228 227 225 223 222 221 221 216 213 211 210 212 219 216 211 209 203 212 212 210 205 211 201 204 148 150 167 185 154 164 183 202 208 170 190 230 217 159 182 209 196 188 189 207 207 220 203 212 224 221 237 241 244 251 252 254 257 258 259 262 263 263 265 269 272 275 280 281 282 283 284 286 289 294
231 231 231 232 227 220 215 213 213 214 213 213 212 207 202 202 204 206 206 204 200 194 194 201 177 181 203 191 196 192 210 179 128 157 181 213 203 153 197 232 204 190 185 188 215 227 191 194 229 213 234 243 224 240 245 246 248 258 261 262 262 264 268 272 274 278 281 282 282 284 286 288 292 297
230 231 229 230 223 224 224 221 217 214 217 220 221 219 203 199 197 199 197 200 190 192 203 197 188 201 204 205 192 204 185 179 194 189 183 188 161 190 188 228 285 195 173 192 208 247 189 171 214 219 227 235 226 223 227 234 243 245 249 253 258 265 272 275 278 279 282 283 284 287 289 292 297 303
230 226 225 225 221 212 209 207 219 223 225 222 220 221 216 209 206 197 188 188 190 195 197 193 203 194 208 198 182 195 173 193 189 189 169 183 184 182 196 190 202 202 167 168 174 252 191 170 203 231 233 221 219 212 205 223 235 248 255 264 272 277 277 278 279 280 282 285 287 291 294 298 303 307
227 219 213 218 217 216 209 209 207 207 224 236 234 229 221 212 206 207 204 194 189 187 194 195 198 201 196 191 202 191 189 161 173 170 183 192 193 196 193 207 167 198 172 137 158 218 258 155 183 224 247 216 208 192 206 220 245 271 285 290 293 288 283 280 278 280 286 290 294 297 301 304 306 308
225 215 211 215 219 211 205 206 207 207 215 216 220 221 214 213 214 209 204 202 195 181 190 191 202 208 180 196 194 187 155 157 182 179 198 186 190 193 207 187 169 164 164 164 146 87 281 155 151 204 277 207 137 159 184 218 284 325 323 316 301 285 281 282 285 294 301 304 305 305 306 308 309 309
225 215 212 209 209 202 205 202 201 208 208 204 207 207 208 208 203 203 203 200 194 191 195 198 206 189 190 194 171 167 174 179 182 183 187 185 186 156 86 56 62 125 157 130 117 172 239 122 125 234 196 111 147 181 239 62 67 53 30 29 345 337 337 326 325 319 318 317 313 312 311 311 312 311
220 217 213 215 216 208 207 206 203 205 197 197 200 200 206 207 204 210 216 211 196 181 183 193 192 183 181 173 169 169 175 170 145 124 89 106 118 141 164 180 179 167 200 146 128 121 132 180 122 130 177 132 98 41 73 76 88 80 76 70 53 35 17 3 353 342 336 330 327 325 323 321 318 316
223 215 207 205 209 210 216 210 203 205 190 196 194 196 198 197 194 206 194 185 162 149 153 160 159 159 162 163 163 167 165 158 151 137 136 170 158 161 183 197 157 209 157 201 129 119 125 190 131 123 212 157 134 104 96 35 78 86 85 73 60 49 35 27 17 9 358 350 343 338 333 328 324 323
228 222 213 209 207 207 212 204 202 198 188 193 191 190 184 183 192 200 180 135 121 122 121 128 134 139 146 147 148 154 157 157 157 156 177 177 162 185 184 180 172 102 133 187 162 114 189 163 115 127 316 49 44 94 118 95 68 68 67 67 65 50 40 35 26 16 6 358 352 347 342 338 335 342
231 228 218 214 213 214 213 201 200 194 187 194 188 186 179 191 197 192 169 161 147 146 138 141 136 140 146 145 147 160 162 166 174 179 170 155 172 180 176 147 118 90 232 215 182 131 184 117 196 128 84 71 298 270 54 92 98 81 74 59 52 46 36 29 21 15 8 1 356 354 350 346 343 337
235 232 231 226 223 220 213 205 202 196 190 193 193 180 188 191 206 168 172 184 176 171 170 165 165 161 155 142 141 154 164 170 171 164 160 171 168 165 165 169 160 161 174 189 168 135 150 113 165 107 152 131 139 230 14 43 57 69 63 54 53 42 35 34 24 18 8 3 1 358 352 346 345 339
235 228 226 229 225 225 222 211 205 200 199 199 190 192 195 200 191 163 176 176 167 165 161 158 156 155 158 159 155 155 154 150 134 108 116 142 159 159 163 165 150 121 205 197 160 102 156 141 152 92 49 83 143 106 1 69 32 49 52 63 47 8 36 15 25 355 5 8 8 359 352 350 348 346
237 233 219 224 209 212 221 220 209 204 202 200 196 205 207 176 147 166 170 165 163 162 157 157 160 161 162 163 163 159 150 143 129 112 106 105 96 101 148 157 150 144 169 187 157 133 117 100 164 121 109 97 37 95 53 16 67 61 60 55 49 16 43 20 359 353 8 14 13 354 351 350 348 346
238 224 218 214 205 211 214 210 208 207 204 198 206 205 191 166 155 146 150 156 160 163 164 162 169 170 167 166 168 163 151 143 125 113 108 103 100 87 69 60 94 120 126 123 119 127 107 126 125 133 140 128 115 37 97 102 318 359 34 37 17 9 23 34 8 12 20 8 346 355 355 350 350 346
222 219 211 209 204 211 214 210 204 206 204 203 204 193 184 162 155 154 153 165 169 165 165 171 172 175 171 162 163 162 148 137 125 114 107 98 96 93 81 77 77 89 99 103 96 91 107 116 101 105 123 124 124 124 142 23 94 65 64 6 4 35 9 40 28 14 342 355 11 8 355 348 338 342
233 223 216 206 204 209 212 213 213 212 209 208 201 188 172 159 161 164 163 163 163 170 179 180 175 171 175 168 152 131 122 117 112 104 93 89 88 88 85 78 75 77 83 84 86 87 104 115 116 111 95 97 111 122 127 142 124 57 48 8 354 340 37 15 11 348 1 26 21 360 346 335 335 337
232 227 215 209 210 207 199 186 188 191 195 193 181 167 162 169 170 168 168 170 173 180 177 175 175 169 147 133 134 130 131 134 138 135 128 120 113 113 110 96 74 63 65 77 82 87 91 98 108 105 106 108 111 115 117 116 82 75 64 83 55 327 84 26 1 7 48 28 5 1 349 341 328 328
214 184 188 181 169 155 166 169 178 184 176 172 172 172 179 183 180 176 178 180 181 176 171 167 148 131 123 119 127 141 146 141 146 146 137 129 135 126 117 110 110 99 72 69 78 86 88 93 100 115 121 121 113 118 90 97 111 115 305 127 96 102 293 357 2 43 49 23 7 4 353 338 330 331
172 149 134 130 129 133 135 139 134 147 166 179 178 184 189 187 180 185 176 168 185 169 147 124 117 120 136 140 140 140 145 145 148 150 140 141 141 138 130 110 121 121 106 87 72 74 95 107 112 110 114 123 120 111 101 118 142 176 211 171 127 90 77 62 39 16 16 360 356 356 347 340 330 331
120 133 152 161 157 161 165 163 166 164 166 176 182 178 181 182 179 175 181 183 174 155 138 141 141 134 130 131 138 138 139 150 152 145 134 143 139 143 122 127 141 141 135 126 112 95 94 96 97 111 116 119 124 125 116 86 142 171 159 256 97 80 76 39 48 3 347 335 339 326 335 334 319 325
176 189 194 193 181 179 181 183 177 172 170 170 177 189 179 174 181 186 187 184 167 159 154 151 150 151 145 136 147 148 145 143 139 140 141 147 148 145 141 137 140 140 133 136 137 136 120 102 97 77 78 73 78 120 138 127 156 95 80 73 97 58 15 66 16 12 341 317 307 322 321 320 313 313
198 197 196 196 198 200 193 195 192 180 177 181 174 180 178 180 180 180 177 167 154 152 146 151 149 147 150 153 154 151 152 147 138 133 132 137 149 147 145 138 143 144 142 138 143 149 136 132 123 104 70 65 62 5 189 152 127 160 52 89 114 62 15 23 56 351 320 308 314 313 294 298 317 313
215 207 204 201 197 190 195 202 191 187 188 184 179 171 171 182 184 182 175 161 157 155 153 155 157 154 150 151 151 147 150 143 138 143 147 154 148 140 133 135 135 137 134 139 144 151 144 144 140 135 130 126 94 86 334 205 152 142 124 61 38 101 51 73 11 308 338 3 330 353 10 341 320 322
219 203 204 207 204 200 205 196 195 195 189 184 182 183 184 184 183 180 169 155 159 161 161 158 157 154 150 149 145 148 151 147 147 153 155 154 147 142 136 135 136 137 134 138 140 143 139 144 143 134 131 126 122 134 158 173 210 172 117 106 36 68 137 59 329 5 345 5 335 4 24 340 316 308
228 211 205 206 202 202 201 198 192 191 191 189 189 189 192 190 182 173 160 158 159 156 150 148 146 150 150 151 149 153 149 144 145 154 158 156 149 150 148 143 143 143 138 133 135 143 140 138 144 150 141 146 140 145 150 187 23 39 142 140 139 223 75 83 22 34 346 331 16 346 355 332 314 296
235 226 216 209 200 194 197 197 191 194 191 187 188 188 183 178 173 165 170 166 154 147 144 145 151 154 155 155 158 154 148 151 161 164 161 161 157 149 148 143 138 140 135 134 128 132 135 138 145 147 146 146 152 167 153 141 137 248 322 50 128 68 54 100 70 7 354 303 327 323 296 270 287 336
242 245 239 223 213 201 201 196 197 195 191 193 191 188 180 177 172 172 172 165 155 153 148 149 147 147 151 154 153 143 142 158 163 163 161 156 155 152 148 149 147 145 140 141 143 144 139 143 141 138 130 124 127 129 128 134 157 81 20 36 115 135 156 127 126 155 279 275 286 316 350 351 355 325
235 238 241 236 227 208 201 198 197 193 195 190 187 183 180 174 175 178 170 161 160 156 155 153 152 154 156 160 158 148 151 157 160 157 153 151 150 152 147 142 143 150 145 147 148 149 143 138 127 120 114 110 108 90 73 73 93 52 56 356 28 47 29 33 166 183 226 243 318 354 37 347 277 341
230 234 235 227 225 216 201 197 185 183 180 175 174 171 169 170 177 153 150 149 150 150 149 151 151 153 156 162 151 144 150 156 155 154 153 149 145 144 146 147 149 154 151 151 148 134 125 119 112 107 105 105 108 100 126 135 141 109 114 11 340 4 0 340 314 276 237 209 123 33 6 342 358 21
229 231 232 225 219 211 202 195 185 178 175 168 166 159 159 161 158 156 158 156 155 154 155 151 152 149 154 156 143 141 146 149 151 149 148 150 149 150 154 157 151 143 134 123 115 121 124 119 111 110 112 109 123 110 130 119 116 108 88 15 334 332 324 327 316 279 59 68 95 142 162 169 136 7
223 226 226 211 201 202 199 191 182 175 166 165 157 154 160 163 164 163 162 159 156 153 150 149 146 147 154 146 134 134 142 145 146 145 147 149 149 146 144 140 137 132 129 125 126 127 122 114 110 117 115 133 130 114 131 120 115 115 131 114 354 4 333 326 341 141 136 120 99 68 88 93 28 54
220 218 215 191 190 187 186 179 171 164 159 154 155 157 156 155 156 153 153 153 151 149 146 146 146 149 146 139 135 136 139 133 132 132 130 133 134 138 138 139 137 137 136 137 133 128 121 117 113 104 99 108 97 107 117 114 117 88 77 67 326 310 302 2 30 17 28 343 12 38 114 164 111 65